Regional Weather Roundup
Issued by NWS Albany, NY

Home | Current Version | Previous Version | Graphics & Text | Print | Product List | Glossary Off
Versions: 1 2 3 4 5 6 7 8 9 10 11 12 13 14 15 16 17 18 19 20 21 22 23 24 25 26 27 28 29 30 31 32 33 34 35 36 37 38 39 40 41 42 43 44 45 46 47 48 49 50

000
ASUS41 KALY 230910
RWRALY

NEW YORK STATE HOURLY WEATHER ROUNDUP
NATIONAL WEATHER SERVICE ALBANY NY
400 AM EST THU NOV 23 2017

NOTE: "FAIR" INDICATES FEW OR NO CLOUDS BELOW 12,000 FEET WITH NO
SIGNIFICANT WEATHER AND/OR NO OBSTRUCTIONS TO VISIBILITY.

NYZ032-033-038>043-046>054-057>066-NYZ062>081-082-084-231000-
EAST


CITY           SKY/WX    TMP DP  RH WIND       PRES   REMARKS
ALBANY         CLOUDY    31  20  63 NW16      30.11R WCI  20
GLENS FALLS    CLEAR     25  16  68 NW5       30.10S WCI  19
POUGHKEEPSIE   CLEAR     29  17  61 NW6       30.10R WCI  23
NEWBURGH       CLEAR    N/A N/A N/A NW9       30.09R
MONTGOMERY     CLEAR     30  18  60 NW3       30.09S
WHITE PLAINS   CLEAR     31  20  63 NW13      30.05F WCI  21
ISLIP          CLEAR     34  25  69 NW8       30.05S WCI  27
NEW YORK CITY  CLEAR     35  22  58 NW17G25   30.08F WCI  25
CENTRAL PARK   CLEAR     33  19  56 VRB5      30.10F WCI  29
$$

NYZ005>009-017-018-044>046-055-056-231000-
CENTRAL


CITY           SKY/WX    TMP DP  RH WIND       PRES   REMARKS
FULTON         CLOUDY    26  18  71 W7        30.15R WCI  18
SYRACUSE       PTCLDY    26  20  77 W3        30.15R
ROME           CLOUDY    27  20  75 W7        30.15R WCI  19
ELMIRA         CLOUDY    29  18  63 W5        30.14F WCI  24
BINGHAMTON     CLOUDY    25  17  72 NW8       30.07F WCI  16
MONTICELLO     PTCLDY    25  17  72 NW9       30.07S WCI  15
$$

NYZ026>034-041>043-087-231000-
NORTH


CITY           SKY/WX    TMP DP  RH WIND       PRES   REMARKS
WATERTOWN      CLOUDY    23  17  78 E5        30.15S WCI  17
FORT DRUM      NOT AVBL
OGDENSBURG     CLOUDY    21  18  87 CALM      30.14F
MASSENA        CLOUDY    20  14  77 W6        30.16S WCI  12
SARANAC LAKE   CLOUDY    13  11  92 SW6       30.02S FOG     WCI   4
PLATTSBURGH    CLEAR     21  10  62 CALM      30.12S
$$

NYZ001>004-010>016-019>021-085-231000-
WEST


CITY           SKY/WX    TMP DP  RH WIND       PRES   REMARKS
NIAGARA FALLS  CLOUDY    31  19  61 W6        30.14F WCI  25
BUFFALO        CLOUDY    30  19  63 W3        30.15F
DUNKIRK        CLOUDY    30  22  72 S6        30.16F WCI  24
JAMESTOWN      CLOUDY    25  20  81 S5        30.11F WCI  19
WELLSVILLE     CLOUDY    25  16  68 NW7       30.09F WCI  17
ROCHESTER      CLOUDY    30  21  69 SW8       30.16S WCI  22
PENN YAN       CLOUDY    28  16  60 SW7       30.14F WCI  21
$$

             KEY
       WCI = WIND CHILL INDEX
       VSB = VISIBILITY
       HX  = HEAT INDEX
$$



USA.gov is the U.S. government's official web portal to all federal, state and local government web resources and services.